Time,TemperatureF,DewpointF,PressureIn,WindDirection,WindDirectionDegrees,WindSpeedMPH,WindSpeedGustMPH,Humidity,HourlyPrecipIn,Conditions,Clouds,dailyrainin,SoftwareType,DateUTC
2013-06-26 00:10:00,54.7,34.0,29.76,East,84,0.0,6.0,46,0.00,,,0.00,weatherlink.com 1.10,2013-06-26 06:10:00,
2013-06-26 00:26:00,54.5,34.0,29.76,East,84,3.0,6.0,46,0.00,,,0.00,weatherlink.com 1.10,2013-06-26 06:26:00,
2013-06-26 00:41:00,55.3,34.0,29.76,East,82,2.0,6.0,45,0.00,,,0.00,weatherlink.com 1.10,2013-06-26 06:41:00,
2013-06-26 00:56:00,54.8,34.0,29.77,East,83,0.0,0.0,45,0.00,,,0.00,weatherlink.com 1.10,2013-06-26 06:56:00,
2013-06-26 01:11:00,54.4,34.0,29.77,East,83,0.0,0.0,46,0.00,,,0.00,weatherlink.com 1.10,2013-06-26 07:11:00,
2013-06-26 01:26:00,54.9,34.0,29.77,East,83,0.0,0.0,45,0.00,,,0.00,weatherlink.com 1.10,2013-06-26 07:26:00,
2013-06-26 01:41:00,53.9,34.0,29.77,East,83,0.0,0.0,47,0.00,,,0.00,weatherlink.com 1.10,2013-06-26 07:41:00,
2013-06-26 01:56:00,53.8,34.0,29.77,East,83,0.0,1.0,47,0.00,,,0.00,weatherlink.com 1.10,2013-06-26 07:56:00,
2013-06-26 02:11:00,53.2,33.0,29.77,ENE,77,0.0,4.0,47,0.00,,,0.00,weatherlink.com 1.10,2013-06-26 08:11:00,
2013-06-26 02:26:00,52.5,34.0,29.77,ENE,75,0.0,0.0,49,0.00,,,0.00,weatherlink.com 1.10,2013-06-26 08:26:00,
2013-06-26 02:41:00,51.5,33.0,29.78,ENE,75,0.0,0.0,50,0.00,,,0.00,weatherlink.com 1.10,2013-06-26 08:41:00,
2013-06-26 02:56:00,51.0,33.0,29.78,ENE,75,0.0,0.0,51,0.00,,,0.00,weatherlink.com 1.10,2013-06-26 08:56:00,
2013-06-26 03:11:00,50.5,33.0,29.79,ENE,75,0.0,0.0,52,0.00,,,0.00,weatherlink.com 1.10,2013-06-26 09:11:00,
2013-06-26 03:26:00,50.2,33.0,29.79,NE,35,0.0,0.0,53,0.00,,,0.00,weatherlink.com 1.10,2013-06-26 09:26:00,
2013-06-26 03:41:00,50.2,33.0,29.79,NE,38,2.0,4.0,53,0.00,,,0.00,weatherlink.com 1.10,2013-06-26 09:41:00,
2013-06-26 03:56:00,50.4,33.0,29.79,NE,38,3.0,6.0,52,0.00,,,0.00,weatherlink.com 1.10,2013-06-26 09:56:00,
2013-06-26 04:11:00,50.3,33.0,29.80,NE,38,0.0,3.0,52,0.00,,,0.00,weatherlink.com 1.10,2013-06-26 10:11:00,
2013-06-26 04:26:00,49.7,33.0,29.81,NE,38,0.0,0.0,54,0.00,,,0.00,weatherlink.com 1.10,2013-06-26 10:26:00,
2013-06-26 04:41:00,49.0,33.0,29.81,NE,38,0.0,1.0,55,0.00,,,0.00,weatherlink.com 1.10,2013-06-26 10:41:00,
2013-06-26 04:56:00,49.1,33.0,29.82,NE,38,0.0,0.0,55,0.00,,,0.00,weatherlink.com 1.10,2013-06-26 10:56:00,
2013-06-26 05:11:00,48.4,33.0,29.82,NE,38,0.0,0.0,56,0.00,,,0.00,weatherlink.com 1.10,2013-06-26 11:11:00,
2013-06-26 05:26:00,48.4,33.0,29.82,NE,38,0.0,0.0,56,0.00,,,0.00,weatherlink.com 1.10,2013-06-26 11:26:00,
2013-06-26 05:41:00,46.7,33.0,29.83,NE,38,0.0,0.0,59,0.00,,,0.00,weatherlink.com 1.10,2013-06-26 11:41:00,
2013-06-26 05:56:00,47.3,33.0,29.83,NE,38,0.0,0.0,58,0.00,,,0.00,weatherlink.com 1.10,2013-06-26 11:56:00,
2013-06-26 06:11:00,48.6,34.0,29.84,NE,38,0.0,4.0,57,0.00,,,0.00,weatherlink.com 1.10,2013-06-26 12:11:00,
2013-06-26 06:26:00,50.3,34.0,29.85,NE,38,0.0,0.0,55,0.00,,,0.00,weatherlink.com 1.10,2013-06-26 12:26:00,
2013-06-26 06:41:00,52.2,36.0,29.85,NE,38,0.0,0.0,55,0.00,,,0.00,weatherlink.com 1.10,2013-06-26 12:41:00,
2013-06-26 06:56:00,53.1,37.0,29.86,NE,38,0.0,0.0,55,0.00,,,0.00,weatherlink.com 1.10,2013-06-26 12:56:00,
2013-06-26 07:11:00,55.1,39.0,29.86,NE,38,0.0,0.0,55,0.00,,,0.00,weatherlink.com 1.10,2013-06-26 13:11:00,
2013-06-26 07:26:00,57.9,39.0,29.86,NE,38,0.0,0.0,50,0.00,,,0.00,weatherlink.com 1.10,2013-06-26 13:26:00,
2013-06-26 07:42:00,58.7,39.0,29.87,NE,38,0.0,0.0,48,0.00,,,0.00,weatherlink.com 1.10,2013-06-26 13:42:00,
2013-06-26 07:57:00,56.4,38.0,29.87,NE,38,0.0,0.0,50,0.00,,,0.00,weatherlink.com 1.10,2013-06-26 13:57:00,
2013-06-26 08:12:00,57.2,39.0,29.87,NE,38,0.0,0.0,51,0.00,,,0.00,weatherlink.com 1.10,2013-06-26 14:12:00,
2013-06-26 08:27:00,59.3,41.0,29.88,NE,38,0.0,0.0,52,0.00,,,0.00,weatherlink.com 1.10,2013-06-26 14:27:00,
2013-06-26 08:42:00,60.1,40.0,29.88,West,276,0.0,1.0,48,0.00,,,0.00,weatherlink.com 1.10,2013-06-26 14:42:00,
2013-06-26 08:57:00,60.9,41.0,29.88,West,266,0.0,1.0,48,0.00,,,0.00,weatherlink.com 1.10,2013-06-26 14:57:00,
2013-06-26 09:12:00,62.7,43.0,29.88,West,266,0.0,0.0,48,0.00,,,0.00,weatherlink.com 1.10,2013-06-26 15:12:00,
2013-06-26 09:27:00,64.2,43.0,29.89,SW,215,0.0,5.0,46,0.00,,,0.00,weatherlink.com 1.10,2013-06-26 15:27:00,
2013-06-26 09:42:00,65.2,43.0,29.89,SW,216,0.0,3.0,44,0.00,,,0.00,weatherlink.com 1.10,2013-06-26 15:42:00,
2013-06-26 09:57:00,66.5,44.0,29.89,SW,219,0.0,0.0,44,0.00,,,0.00,weatherlink.com 1.10,2013-06-26 15:57:00,
2013-06-26 10:12:00,68.4,44.0,29.88,SW,219,0.0,4.0,41,0.00,,,0.00,weatherlink.com 1.10,2013-06-26 16:12:00,
2013-06-26 10:27:00,69.4,45.0,29.89,SW,225,0.0,6.0,41,0.00,,,0.00,weatherlink.com 1.10,2013-06-26 16:27:00,
2013-06-26 10:42:00,71.3,46.0,29.88,SW,225,0.0,0.0,40,0.00,,,0.00,weatherlink.com 1.10,2013-06-26 16:42:00,
2013-06-26 10:57:00,73.5,43.0,29.88,SW,228,0.0,5.0,33,0.00,,,0.00,weatherlink.com 1.10,2013-06-26 16:57:00,
2013-06-26 11:12:00,75.2,42.0,29.88,SW,229,4.0,4.0,30,0.00,,,0.00,weatherlink.com 1.10,2013-06-26 17:12:00,
2013-06-26 11:27:00,76.3,43.0,29.88,SW,217,0.0,0.0,30,0.00,,,0.00,weatherlink.com 1.10,2013-06-26 17:27:00,
2013-06-26 11:42:00,77.3,42.0,29.87,SW,226,2.0,10.0,28,0.00,,,0.00,weatherlink.com 1.10,2013-06-26 17:42:00,
2013-06-26 11:57:00,77.3,42.0,29.87,WSW,245,6.0,11.0,28,0.00,,,0.00,weatherlink.com 1.10,2013-06-26 17:57:00,
2013-06-26 12:12:00,77.6,42.0,29.87,East,93,4.0,12.0,28,0.00,,,0.00,weatherlink.com 1.10,2013-06-26 18:12:00,
2013-06-26 12:27:00,78.5,43.0,29.86,SW,232,0.0,14.0,28,0.00,,,0.00,weatherlink.com 1.10,2013-06-26 18:27:00,
2013-06-26 12:42:00,79.4,44.0,29.86,WNW,294,0.0,6.0,28,0.00,,,0.00,weatherlink.com 1.10,2013-06-26 18:42:00,
2013-06-26 12:58:00,80.5,42.0,29.85,WSW,245,3.0,6.0,25,0.00,,,0.00,weatherlink.com 1.10,2013-06-26 18:58:00,
2013-06-26 13:13:00,80.0,42.0,29.84,South,187,0.0,8.0,26,0.00,,,0.00,weatherlink.com 1.10,2013-06-26 19:13:00,
2013-06-26 13:28:00,82.3,43.0,29.84,West,276,0.0,13.0,25,0.00,,,0.00,weatherlink.com 1.10,2013-06-26 19:28:00,
2013-06-26 13:43:00,82.3,43.0,29.83,SSW,206,9.0,17.0,25,0.00,,,0.00,weatherlink.com 1.10,2013-06-26 19:43:00,
2013-06-26 13:58:00,82.0,43.0,29.83,SW,225,13.0,15.0,25,0.00,,,0.00,weatherlink.com 1.10,2013-06-26 19:58:00,
2013-06-26 14:13:00,81.8,43.0,29.83,SW,214,14.0,16.0,25,0.00,,,0.00,weatherlink.com 1.10,2013-06-26 20:13:00,
2013-06-26 14:28:00,82.1,44.0,29.82,West,280,1.0,6.0,26,0.00,,,0.00,weatherlink.com 1.10,2013-06-26 20:28:00,
2013-06-26 14:43:00,82.0,45.0,29.82,WNW,291,5.0,13.0,27,0.00,,,0.00,weatherlink.com 1.10,2013-06-26 20:43:00,
2013-06-26 14:58:00,82.3,44.0,29.81,SW,227,9.0,14.0,26,0.00,,,0.00,weatherlink.com 1.10,2013-06-26 20:58:00,
2013-06-26 15:13:00,83.6,43.0,29.81,SW,227,11.0,17.0,24,0.00,,,0.00,weatherlink.com 1.10,2013-06-26 21:13:00,
2013-06-26 15:28:00,83.3,42.0,29.80,SW,229,6.0,17.0,23,0.00,,,0.00,weatherlink.com 1.10,2013-06-26 21:28:00,
2013-06-26 15:43:00,83.4,43.0,29.80,SSW,210,10.0,16.0,24,0.00,,,0.00,weatherlink.com 1.10,2013-06-26 21:43:00,
2013-06-26 15:58:00,84.2,43.0,29.79,SSW,211,7.0,19.0,23,0.00,,,0.00,weatherlink.com 1.10,2013-06-26 21:58:00,
2013-06-26 16:13:00,83.5,42.0,29.79,SW,226,9.0,17.0,23,0.00,,,0.00,weatherlink.com 1.10,2013-06-26 22:13:00,
2013-06-26 16:28:00,83.8,45.0,29.79,SSW,209,1.0,14.0,26,0.00,,,0.00,weatherlink.com 1.10,2013-06-26 22:28:00,
2013-06-26 16:43:00,84.0,43.0,29.78,SSW,210,9.0,17.0,24,0.00,,,0.00,weatherlink.com 1.10,2013-06-26 22:43:00,
2013-06-26 16:58:00,84.6,43.0,29.78,West,269,6.0,12.0,23,0.00,,,0.00,weatherlink.com 1.10,2013-06-26 22:58:00,
2013-06-26 17:13:00,84.5,43.0,29.79,NW,318,1.0,14.0,23,0.00,,,0.00,weatherlink.com 1.10,2013-06-26 23:13:00,
2013-06-26 17:28:00,84.0,43.0,29.78,South,183,0.0,14.0,24,0.00,,,0.00,weatherlink.com 1.10,2013-06-26 23:28:00,
2013-06-26 17:43:00,83.6,44.0,29.77,SSW,213,7.0,15.0,25,0.00,,,0.00,weatherlink.com 1.10,2013-06-26 23:43:00,
2013-06-26 17:58:00,83.5,43.0,29.77,SW,226,7.0,16.0,24,0.00,,,0.00,weatherlink.com 1.10,2013-06-26 23:58:00,
2013-06-26 18:13:00,83.8,42.0,29.77,WNW,285,0.0,14.0,23,0.00,,,0.00,weatherlink.com 1.10,2013-06-27 00:13:00,
2013-06-26 18:28:00,83.2,42.0,29.76,WNW,301,5.0,14.0,23,0.00,,,0.00,weatherlink.com 1.10,2013-06-27 00:28:00,
2013-06-26 18:43:00,82.6,41.0,29.77,West,270,5.0,16.0,23,0.00,,,0.00,weatherlink.com 1.10,2013-06-27 00:43:00,
2013-06-26 18:58:00,82.1,38.0,29.77,WNW,294,9.0,15.0,21,0.00,,,0.00,weatherlink.com 1.10,2013-06-27 00:58:00,
2013-06-26 19:13:00,81.6,38.0,29.77,WNW,297,1.0,10.0,21,0.00,,,0.00,weatherlink.com 1.10,2013-06-27 01:13:00,
2013-06-26 19:28:00,81.2,41.0,29.77,NW,309,3.0,7.0,24,0.00,,,0.00,weatherlink.com 1.10,2013-06-27 01:28:00,
2013-06-26 19:43:00,79.9,40.0,29.78,NW,309,0.0,8.0,24,0.00,,,0.00,weatherlink.com 1.10,2013-06-27 01:43:00,
2013-06-26 19:58:00,78.3,40.0,29.78,NW,316,4.0,4.0,25,0.00,,,0.00,weatherlink.com 1.10,2013-06-27 01:58:00,
2013-06-26 20:13:00,76.1,41.0,29.78,NW,316,0.0,1.0,28,0.00,,,0.00,weatherlink.com 1.10,2013-06-27 02:13:00,
2013-06-26 20:28:00,73.3,38.0,29.79,NW,316,0.0,3.0,28,0.00,,,0.00,weatherlink.com 1.10,2013-06-27 02:28:00,
2013-06-26 20:43:00,70.7,39.0,29.79,ENE,59,4.0,5.0,31,0.00,,,0.00,weatherlink.com 1.10,2013-06-27 02:43:00,
2013-06-26 20:58:00,67.8,38.0,29.80,ENE,75,6.0,8.0,33,0.00,,,0.00,weatherlink.com 1.10,2013-06-27 02:58:00,
2013-06-26 21:13:00,66.1,38.0,29.81,ENE,70,6.0,8.0,36,0.00,,,0.00,weatherlink.com 1.10,2013-06-27 03:13:00,
2013-06-26 21:28:00,65.4,37.0,29.82,ENE,72,6.0,9.0,35,0.00,,,0.00,weatherlink.com 1.10,2013-06-27 03:28:00,
2013-06-26 21:43:00,65.0,37.0,29.83,ENE,70,5.0,8.0,35,0.00,,,0.00,weatherlink.com 1.10,2013-06-27 03:43:00,
2013-06-26 21:58:00,64.7,36.0,29.83,ENE,70,6.0,9.0,35,0.00,,,0.00,weatherlink.com 1.10,2013-06-27 03:58:00,
2013-06-26 22:13:00,64.9,36.0,29.84,ENE,65,5.0,9.0,34,0.00,,,0.00,weatherlink.com 1.10,2013-06-27 04:13:00,
2013-06-26 22:28:00,64.1,35.0,29.85,ENE,73,5.0,8.0,34,0.00,,,0.00,weatherlink.com 1.10,2013-06-27 04:28:00,
2013-06-26 22:43:00,63.9,35.0,29.85,East,83,5.0,8.0,34,0.00,,,0.00,weatherlink.com 1.10,2013-06-27 04:43:00,
2013-06-26 22:58:00,62.8,35.0,29.86,East,79,1.0,7.0,35,0.00,,,0.00,weatherlink.com 1.10,2013-06-27 04:58:00,
2013-06-26 23:13:00,62.2,35.0,29.86,East,79,2.0,4.0,36,0.00,,,0.00,weatherlink.com 1.10,2013-06-27 05:13:00,
2013-06-26 23:28:00,61.3,34.0,29.86,East,79,0.0,4.0,36,0.00,,,0.00,weatherlink.com 1.10,2013-06-27 05:28:00,
2013-06-26 23:43:00,61.1,34.0,29.86,ENE,77,3.0,5.0,36,0.00,,,0.00,weatherlink.com 1.10,2013-06-27 05:43:00,
2013-06-26 23:58:00,60.3,33.0,29.86,East,82,2.0,5.0,36,0.00,,,0.00,weatherlink.com 1.10,2013-06-27 05:58:00,